Theta_e
345 351 357 356 355 355 354 353 353 353 352 351 351 350 351 350 350 351 351 351 352 353 352 352 356 356 358 358 358 359 359 359 358 357 357 358 357 357 358 356 356 352 355
349 351 357 355 354 353 353 352 351 351 351 350 350 350 350 349 349 350 350 350 351 355 354 352 355 355 358 357 356 357 357 357 357 358 357 358 357 357 355 355 354 352 354
348 350 352 355 353 352 352 351 351 350 350 350 350 349 349 348 348 348 348 348 350 352 356 354 355 357 357 356 356 356 355 354 354 354 353 345 348 354 352 352 352 353 352
349 348 349 354 352 351 350 350 350 350 349 349 349 348 347 346 346 346 346 346 347 349 350 352 354 355 356 356 354 351 352 352 352 348 339 339 345 351 351 351 350 349 349
345 347 348 352 352 351 350 349 348 348 348 348 348 347 347 346 345 344 344 344 345 345 348 349 352 352 353 353 351 349 348 346 344 342 337 338 340 348 350 349 346 346 345
343 346 348 351 351 350 350 349 349 348 348 346 345 345 344 344 344 343 342 341 341 341 342 343 345 346 346 346 346 346 348 347 342 328 335 343 339 349 349 347 346 344 343
339 341 343 348 347 346 345 346 345 345 344 344 344 344 344 343 343 342 341 341 340 338 339 339 342 342 342 342 341 341 342 342 329 327 333 336 336 350 349 346 345 344 342
337 337 339 343 344 343 343 342 341 339 338 336 336 335 336 338 339 342 341 342 342 342 340 339 338 339 340 340 340 339 338 340 334 326 328 329 338 348 344 344 343 343 341
338 337 336 334 335 339 338 336 334 334 333 333 334 337 335 335 339 339 340 341 341 341 344 344 341 340 338 338 339 340 340 338 328 327 329 328 346 345 343 342 341 340 339
329 325 319 320 323 325 326 332 331 332 333 333 334 336 333 331 333 335 340 340 341 340 340 341 344 342 340 339 340 340 341 335 322 327 327 329 346 342 341 341 341 340 339
316 315 317 317 317 317 322 327 328 333 335 333 327 331 321 316 320 326 335 336 338 338 339 340 341 341 341 341 342 342 342 324 322 324 328 343 346 342 341 340 341 340 340
320 320 319 318 320 319 322 318 317 319 317 316 316 317 315 315 322 323 325 329 331 335 335 337 338 339 337 332 329 333 328 326 323 326 331 345 345 342 341 340 340 340 339
320 319 319 318 318 319 317 316 317 316 316 315 316 315 314 315 314 315 315 316 319 326 321 324 328 329 329 328 328 325 327 328 325 328 332 343 345 342 342 342 342 341 341
317 319 320 320 318 319 318 316 315 315 314 312 314 315 313 312 312 311 312 313 315 318 317 320 318 320 322 321 321 323 324 327 327 328 329 341 341 342 342 342 342 342 340
318 320 321 320 317 317 315 314 314 312 311 311 312 312 311 309 309 310 309 310 314 314 317 317 319 318 319 323 322 322 324 327 330 329 329 336 338 340 341 341 342 341 339
322 321 319 317 315 313 313 312 313 312 309 311 310 310 309 307 307 307 307 308 308 311 313 316 318 316 314 315 315 316 320 322 327 328 325 328 336 336 337 339 340 340 338
320 319 317 316 311 311 311 312 312 311 311 310 309 310 309 307 306 305 305 306 306 309 310 314 315 316 316 316 314 313 315 318 319 324 327 328 329 335 335 336 337 339 338
317 315 313 315 311 310 310 310 309 309 308 308 307 308 310 309 308 306 306 306 306 307 309 310 313 312 313 313 311 314 312 313 317 319 322 322 323 325 330 336 336 336 336
315 313 311 311 309 309 310 309 308 308 309 307 307 307 309 310 312 307 307 307 307 307 308 309 309 309 311 309 310 313 309 312 312 320 320 321 322 325 323 330 334 334 335
315 312 311 311 310 308 309 309 307 307 307 307 306 307 309 310 312 309 308 309 308 307 307 307 306 307 308 308 312 312 309 309 310 313 313 320 321 324 323 321 323 326 334
315 312 311 309 309 308 307 306 306 305 305 307 306 308 309 311 311 309 308 309 308 307 306 306 306 306 305 307 306 305 306 308 308 310 314 316 320 322 321 322 322 322 325
314 312 310 309 309 307 307 307 307 306 306 306 306 307 309 311 312 311 308 308 308 307 306 306 305 303 304 307 304 301 299 303 305 309 310 314 319 321 320 321 322 322 322
313 311 309 309 309 308 308 308 307 307 305 304 305 306 308 311 312 311 310 309 308 307 306 305 305 304 302 304 306 304 297 297 300 306 309 311 313 313 316 319 320 321 321
311 312 310 309 308 308 307 306 304 303 301 303 304 306 307 310 310 312 311 310 308 307 306 306 309 306 304 303 304 308 305 304 299 298 306 308 311 312 313 316 317 319 320
313 310 310 308 307 308 308 307 306 305 304 306 306 305 305 307 308 311 310 309 308 309 307 307 307 306 306 305 305 305 306 306 305 301 299 304 309 313 315 317 317 316 318
312 311 309 307 305 306 307 308 306 305 305 304 304 304 305 305 307 308 308 308 308 310 308 308 308 307 307 307 309 311 309 308 306 305 304 302 308 312 316 319 318 317 317
Wind_Speed
3 5 11 12 13 13 14 14 14 14 15 14 15 14 15 15 15 15 14 13 11 10 8 9 9 9 11 11 12 12 12 13 15 15 15 16 16 17 15 15 15 11 14
2 5 12 13 13 14 13 13 13 13 13 13 13 14 15 15 14 14 14 13 11 11 10 8 9 9 10 11 11 11 13 12 12 14 15 16 17 16 16 15 15 12 14
3 3 9 13 13 13 13 13 13 13 12 12 13 13 13 13 13 13 12 12 12 11 11 8 8 8 8 10 10 10 10 10 11 13 14 5 7 15 15 14 14 13 13
5 3 5 13 13 13 13 13 13 13 12 12 12 12 12 11 11 11 11 11 11 10 9 8 7 7 7 9 8 8 8 7 6 12 4 4 9 13 14 15 14 13 13
6 5 9 13 13 13 13 12 12 12 12 12 11 10 10 9 8 8 9 9 9 9 8 6 7 6 5 6 6 6 6 5 2 1 5 5 4 11 14 15 11 12 12
7 7 11 13 13 13 13 13 12 12 12 11 10 9 8 7 6 6 6 6 6 6 6 5 4 3 3 3 4 4 4 2 1 2 8 8 5 15 15 15 14 13 12
6 6 6 12 12 11 10 11 11 10 10 10 10 10 8 7 5 4 4 4 4 4 3 4 4 3 3 5 3 1 3 1 3 4 7 6 5 17 17 16 15 13 11
8 5 5 11 11 10 10 9 8 8 8 7 7 6 5 8 0 4 4 4 4 5 5 4 3 4 6 7 9 6 2 3 1 6 6 4 5 13 17 17 16 15 12
6 5 5 5 7 8 7 6 5 6 6 6 5 6 5 9 7 6 4 2 4 4 5 7 7 6 7 8 10 12 8 2 4 6 9 5 13 14 16 17 16 15 13
5 5 4 4 3 3 4 4 3 4 4 3 5 8 11 10 12 15 7 5 7 6 8 9 8 7 9 10 12 13 13 7 1 5 6 6 15 15 15 15 16 15 14
6 6 6 6 5 5 3 5 9 10 11 8 7 8 7 5 6 9 14 10 10 9 10 11 10 8 8 10 12 15 14 2 2 2 5 17 16 16 15 14 15 14 13
5 5 4 6 7 6 4 3 5 7 5 4 5 6 5 6 7 9 12 16 17 16 15 13 11 11 9 2 2 8 3 4 1 1 3 18 17 17 16 16 15 14 13
5 3 4 5 5 6 6 5 4 3 4 4 6 6 6 5 4 5 4 4 4 11 6 7 6 3 2 3 3 1 2 4 3 2 3 15 15 17 16 15 16 15 15
5 4 6 7 7 7 4 4 4 4 3 4 5 6 5 4 5 4 3 4 4 5 6 5 4 5 4 4 5 3 4 2 1 1 3 12 14 16 16 16 16 16 15
5 6 7 7 7 6 6 4 4 4 4 2 4 5 4 4 5 5 4 2 4 4 5 5 5 5 5 4 3 6 3 4 4 3 2 11 10 12 14 15 15 16 15
7 8 8 7 7 6 5 6 5 5 3 4 3 4 5 3 3 4 5 5 4 4 5 5 4 4 5 3 4 5 5 4 5 5 4 6 16 13 11 13 14 16 16
7 7 6 4 5 8 7 6 5 5 5 3 3 3 3 2 2 3 3 4 4 4 6 5 3 4 4 3 4 5 5 6 5 6 7 5 6 13 13 14 16 16 16
7 8 5 6 7 7 7 5 4 4 3 2 1 2 4 5 4 4 3 4 4 4 3 3 4 3 1 3 3 3 4 5 5 5 4 4 4 4 10 19 17 16 15
7 6 5 6 5 5 6 5 5 4 3 2 2 2 5 5 6 3 4 5 5 4 4 3 3 2 2 4 4 3 4 5 3 3 5 6 8 6 5 13 16 16 15
7 6 5 4 3 5 4 4 4 4 3 2 2 3 5 4 6 4 4 5 4 4 4 3 3 2 3 3 4 5 5 4 5 5 6 6 6 9 8 6 5 6 18
5 5 5 4 1 2 2 3 3 3 4 3 3 5 4 4 5 5 4 5 4 3 4 5 3 3 3 1 3 4 4 5 6 5 6 5 6 7 6 7 4 4 5
6 5 5 3 0 1 1 2 2 2 3 3 3 5 5 5 5 4 5 5 5 4 5 4 2 2 2 2 2 0 4 5 3 3 3 5 8 5 5 6 7 6 5
7 5 6 5 4 2 3 2 3 2 3 4 4 4 5 6 6 5 6 5 5 4 4 4 3 3 3 2 5 3 1 4 3 3 2 2 3 3 4 5 6 5 5
5 6 7 6 4 3 2 2 2 1 2 2 3 4 5 5 6 6 6 5 5 4 5 4 3 2 2 4 3 4 4 3 2 4 3 2 2 2 3 3 4 5 6
8 7 7 5 2 2 2 2 2 3 2 3 3 6 5 5 5 6 6 6 6 4 5 5 4 3 3 3 3 2 3 4 3 2 4 3 4 4 3 4 4 4 5
6 7 4 2 3 3 2 3 2 4 5 3 4 4 4 4 4 5 6 5 5 5 5 4 4 3 3 3 2 4 3 2 3 3 2 0 4 4 4 4 5 5 4
Wind_Direction
21 105 101 94 87 79 73 74 77 77 79 83 83 81 78 76 76 75 71 68 64 69 82 95 98 96 94 105 109 110 110 111 109 105 99 106 109 106 102 99 96 97 98
142 96 104 100 96 94 93 89 84 82 82 81 82 80 80 79 78 79 75 69 65 58 82 99 106 105 102 99 106 103 103 105 105 105 105 106 106 101 102 105 101 101 104
56 77 99 98 95 94 93 92 90 88 86 86 82 79 74 74 74 73 73 71 67 65 70 95 104 95 100 96 93 91 100 110 111 107 102 88 99 109 109 108 106 100 102
103 77 82 96 95 91 89 88 83 81 79 79 78 77 76 71 68 67 65 63 65 67 68 79 83 81 79 81 82 82 91 101 118 116 109 113 115 117 118 115 112 109 107
89 78 87 89 90 91 87 84 83 83 82 79 77 74 72 70 65 64 63 61 60 64 71 66 71 63 53 72 83 79 75 61 42 264 134 128 132 131 130 124 122 115 112
84 82 88 86 84 82 82 79 76 71 68 68 69 65 60 56 56 51 49 53 58 59 59 63 70 62 22 25 67 85 98 81 68 259 163 154 166 142 138 132 124 121 117
82 70 86 98 95 92 87 83 79 76 69 60 53 46 37 24 19 22 15 8 4 16 44 42 30 17 349 329 345 63 97 117 60 123 131 145 205 153 149 139 133 131 129
101 81 84 99 96 95 96 95 96 93 86 75 68 54 44 11 350 342 335 328 335 332 329 333 333 329 326 322 321 326 34 94 153 178 145 148 215 165 152 146 142 141 141
95 84 59 45 77 87 89 87 85 94 106 101 82 64 38 28 43 332 281 276 290 297 299 296 298 303 307 312 316 318 334 42 212 162 165 171 180 177 158 149 147 148 148
91 84 65 50 50 40 13 58 28 11 2 45 31 50 62 47 35 11 323 261 276 285 282 268 264 280 302 309 313 314 319 34 317 208 170 170 177 173 162 155 154 155 155
75 59 38 20 22 8 357 354 351 335 335 337 9 27 32 34 21 26 22 339 321 303 296 291 281 256 273 297 315 319 328 323 258 213 159 173 174 168 165 164 163 161 165
54 46 50 44 48 43 39 25 12 9 348 5 358 45 35 43 35 38 23 14 5 8 338 298 290 272 291 332 355 26 26 357 206 251 163 170 171 169 169 172 169 168 173
130 82 57 57 44 34 15 8 14 6 0 9 26 39 51 45 29 22 12 2 348 2 357 354 334 321 261 267 276 150 19 40 30 10 260 181 174 172 172 173 170 170 167
105 105 56 39 27 23 22 9 5 7 355 21 31 33 43 29 22 18 8 356 348 345 347 341 332 315 262 260 268 246 205 209 184 298 299 194 193 185 178 175 171 170 168
74 83 58 39 28 10 13 349 347 345 5 56 56 41 44 34 17 356 347 349 341 338 336 316 327 324 344 318 290 290 208 194 222 226 241 273 223 216 196 188 182 178 174
105 92 78 39 15 6 353 350 334 317 32 89 69 55 44 46 34 3 339 329 337 323 314 301 311 318 307 359 330 314 283 218 194 207 214 223 236 222 224 223 211 199 185
81 77 87 81 2 16 4 5 358 358 74 65 58 13 26 40 11 356 334 318 309 306 299 298 299 296 297 9 333 308 325 300 214 208 207 219 241 221 219 232 225 214 203
95 91 80 51 35 3 8 7 6 11 25 93 73 351 346 357 358 352 322 302 288 295 274 278 260 219 339 334 312 304 290 290 283 235 200 202 216 245 264 240 229 225 205
118 121 90 57 41 356 352 357 354 353 4 6 8 336 360 351 347 345 326 305 308 308 313 319 314 3 303 306 284 254 232 239 296 270 239 222 215 213 221 247 239 230 215
136 129 128 88 23 349 346 342 335 342 15 331 330 2 344 334 332 339 323 318 328 326 314 314 304 285 239 263 273 276 268 241 231 247 232 236 216 208 205 205 229 224 221
135 150 134 114 332 5 343 332 339 331 326 330 340 334 338 332 330 332 322 319 320 324 302 297 279 274 292 261 334 320 300 272 263 232 229 220 211 212 194 203 204 207 223
174 187 133 126 249 318 314 289 259 269 285 279 312 313 318 319 320 318 320 314 320 320 319 319 283 289 266 223 214 177 313 328 318 279 241 230 216 179 196 199 198 201 201
199 163 157 177 208 231 263 291 328 357 349 346 342 317 319 309 305 316 310 308 317 313 295 289 275 237 266 282 211 184 261 242 317 312 338 247 195 177 206 191 194 181 157
196 180 163 204 211 240 314 312 8 28 314 275 270 281 300 307 301 304 311 314 311 303 304 289 270 251 219 264 291 212 237 169 194 320 325 17 18 212 174 175 126 125 134
153 181 191 196 287 311 314 309 351 341 274 279 295 320 325 314 313 304 315 328 322 309 309 302 306 288 225 244 217 261 236 228 198 161 270 333 36 35 73 80 108 97 96
170 191 135 171 278 291 341 331 265 255 280 315 309 311 317 314 310 327 326 328 324 328 344 343 341 332 312 282 271 258 214 221 200 177 202 256 127 55 67 85 99 99 104